Showing default

ESSA 7 (TOS-E), 3345

Orbit data source: Space-Track

ESSA 7 (TOS-E), 3345 is a payload satellite owned by ESSA (US) in SSO that was launched on Fri, 16 Aug 1968 UTC via a THOR DELTA N launch vehicle from the Air Force Western Test Range (AFWTR). Payloads include a variety of satellites, spacecraft, and rockets equipped with specific instruments for various scientific and technological missions. These include communications satellites like Starlink; space stations such as the ISS; scientific satellites like the Hubble; Earth observation satellites from companies like Planet Labs, Umbra, and HawkEye 360; GPS; miniature CubeSats for education and research; and military/defense satellites.

Loading next visibility...
ESSA 7 (TOS-E) details
Identifier
3345, 1968-069A
Orbit
SSO
Last TLE update17 hours ago
Origin
Flag of USESSA (US)
ManufacturerRCA/East Windsor
MissionNon-operational Civil Weather
Bus & MotorTIROS I, Unknown motor
Mass154 kg wet, 154 kg dry
Launch date (UTC)
1968-08-16 (56 years ago)
Launch vehicle
THOR DELTA N
Launch site
Air Force Western Test Range (AFWTR)
Object type
Payload
Rocket body
Debris
Shape & HBRCyl, 1.07 m
Radar Cross Section0.920 m², Medium (>0.1 m² and < 1m²)

Expand to show TLE details & history

TLE from 17 hours ago
0 ESSA 7 (TOS-E)
1 03345U 68069A   24355.93415682 -.00000032  00000-0  70416-4 0  9999
2 03345 101.4792 327.5955 0026868 145.7396 226.4402 12.52999863576947
Epoch: 2024-12-20T22:25Z
Definitive object data (Epoch: 2024-12-20T22:25:11.149Z)
Latitude11.67541°
Longitude-101.08675°
Altitude1,468.339 km
Speed7.123 km/s
True Right ascension21h 40m 48s
True Declination11° 36' 49"
Sunlit
Object was in daylight at TLE epoch
Visualization TLE readout
Latitude56.46879°
Longitude-115.74408°
Altitude1,459.745 km
Speed7.139 km/s
Apparent Right ascension00h 04m 28s
Apparent Declination21° 04' 51"
Sunlit
Object is in daylight
Visualization observer readout
Local Sidereal Time14:57:06
Azimuth41.848° NE
Elevation-16.933°
Doppler factor1
Orbital elements
Apogee altitude1,470.531 km
Perigee altitude1,428.468 km
Semi-major axis7,827.637 km
Eccentricity0.0026868
Inclination101.4792°
RAAN327.5955°
Arg. of periapsis145.7396°
True anomaly226.21761°
Mean anomaly226.4402°
Eccentric anomaly226.32885°
Mean motion3.13399 °/min
BSTAR0.000070416
Orbital period114.87 mins
Loading maneuver chart data...
Loading historical data...
Loading historical data...
Loading historical data...
Loading historical data...
Loading historical data...
Loading historical data...
Loading historical data...

ESSA 7 (TOS-E) Visibility forecast

Observer location: undefined°, undefined

Span
Click to sort rows by Start time (UTC) header in descending order
Start Az.
Max El. time (UTC)
Max El. Az.
Max El.
End time (UTC)
End Az.
5 mins2024-12-21 19:41:44.329Z61.091° ENE2024-12-21 19:43:44.329Z46.324° ENE12.169°2024-12-21 19:46:44.329Z24.416° NE
14 mins2024-12-21 21:28:44.329Z136.876° SSE2024-12-21 21:34:44.329Z71.713° E39.88°2024-12-21 21:42:44.329Z351.335° N
12 mins2024-12-21 23:22:44.329Z212.163° SW2024-12-21 23:27:44.329Z258.909° W27.677°2024-12-21 23:34:44.329Z321.359° NNW
8 mins2024-12-22 09:32:44.329Z61.041° ENE2024-12-22 09:36:44.329Z93.522° ESE16.364°2024-12-22 09:40:44.329Z124.754° SE
14 mins2024-12-22 11:23:44.329Z17.028° NNE2024-12-22 11:29:44.329Z15.459° NNE44.689°2024-12-22 11:37:44.329Z199.591° SSW
9 mins2024-12-22 13:17:44.329Z343.454° N2024-12-22 13:21:44.329Z310.227° NW19.428°2024-12-22 13:26:44.329Z268.935° W
|